Location: �clusier
(49.9361°N, 2.7869°E)
Time: 22:11:26
(UTC+00:00)

Cosmos 1459 Rocket - Pass Details

Date: 16 June 2021
Orbit: 937 x 999 km, 83.0° (Epoch: 01 August)

Event Time Altitude Azimuth Distance (km) Brightness Sun altitude
Rises 20:59:46 0° 351° (N) 3,617 8.2 -7.6°
Reaches altitude 10° 21:02:18 10° 354° (N) 2,665 7.3 -7.8°
Maximum altitude 21:08:21 71° 78° (ENE) 992 4.0 -8.4°
Drops below altitude 10° 21:14:23 10° 163° (SSE) 2,649 5.7 -9.0°
Enters shadow 21:14:33 - 163° (SSE) 2,712 5.7 -9.0°
